Regional Weather Roundup
Issued by NWS

Home | Current Version | Previous Version | Graphics & Text | Print | Product List | Glossary On
Versions: 1 2 3 4 5 6 7 8 9 10 11 12 13 14 15 16 17 18 19 20 21 22 23 24 25 26 27 28 29 30 31 32 33 34 35 36 37 38 39 40 41 42 43 44 45 46 47 48 49 50
000
ASUS43 KFSD 190602
RWRSD

WEATHER ROUNDUP FOR SOUTH DAKOTA
NATIONAL WEATHER SERVICE SIOUX FALLS SD
100 AM CDT SAT AUG 19 2017

NOTE: "FAIR" INDICATES FEW OR NO CLOUDS BELOW 12,000 FEET WITH NO
SIGNIFICANT WEATHER AND/OR OBSTRUCTIONS TO VISIBILITY.


SDZ001>005-009-010-012>017-190700-
NORTHWEST AND NORTH CENTRAL SOUTH DAKOTA

CITY           SKY/WX    TMP DP  RH WIND       PRES   REMARKS
BUFFALO          N/A     67  48  50 SE15      29.86F
FAITH            N/A     62  52  69 S14       29.95S
MOBRIDGE       CLEAR     62  58  86 S6        29.92R
$$

SDZ012>016-024>037-041>051-057-063-072>074-190700-
SOUTHWEST AND SOUTH CENTRAL SOUTH DAKOTA

CITY           SKY/WX    TMP DP  RH WIND       PRES   REMARKS
RAPID CTY ARPT CLEAR     63  47  55 S8        29.98F
PIERRE         CLEAR     63  56  78 SE6       29.94F
CUSTER         CLEAR     53  41  63 CALM      30.14S
ELLSWORTH AFB  CLEAR     65  47  51 S9        29.97F
PHILIP         CLEAR     65  52  62 E5        29.96S
PINE RIDGE     CLEAR     73  51  46 S8        30.01S
SPEARFISH      FAIR      72  41  33 S14       29.97F
WINNER         FAIR      65  58  78 SE8       29.99S
$$

SDZ004>011-016>023-039-040-190700-
NORTHEAST SOUTH DAKOTA

CITY           SKY/WX    TMP DP  RH WIND       PRES   REMARKS
ABERDEEN       CLEAR     55  55 100 SW5       29.94R
WATERTOWN      CLEAR     57  57 100 CALM      29.96F FOG
BROOKINGS      CLEAR     59  58  96 W3        29.98R
SISSETON         N/A     57  56  96 S5        29.92S
$$

SDZ017-020-022-023-036>040-048>070-190700-
SOUTHEAST SOUTH DAKOTA

CITY           SKY/WX    TMP DP  RH WIND       PRES   REMARKS
SIOUX FALLS    CLEAR     61  60  97 NW5       29.96F
HURON          CLEAR     61  58  90 S3        29.95R
CHAMBERLAIN    CLEAR     59  57  94 SE3       29.98S
MITCHELL       CLEAR     63  58  83 CALM      29.96S
YANKTON        CLEAR     61  57  87 CALM      29.97
$$

ABBREVIATIONS USED IN REMARKS
   TC - TEMPERATURE IN CELSIUS
  WCI - WIND CHILL INDEX
   HX - HEAT INDEX
  VSB - VISIBILITY




USA.gov is the U.S. government's official web portal to all federal, state and local government web resources and services.